User: anonymous   Login
Location: Norton
(51.3000°N, 0.8167°E)
Time: 19:48:49
(UTC+00:00)
Language:

SL-8 Rocket - Orbit

View from above orbital plane
View from above orbital plane
View from above satellite
View from above satellite

Ground track
Ground track

The orbit data is extracted from the following two-line orbital elements,

1 21088U 91006B   21136.22634172  .00000058  00000-0  43675-4 0  9997
2 21088  82.9456  37.8117 0021229 280.5400 190.0920 13.77163649522015
Epoch (UTC): 16 May 2021 05:25:55
Eccentricity: 0.0021229
inclination: 82.9456°
perigee height: 958 km
apogee height: 989 km
right ascension of ascending node: 37.8117°
argument of perigee: 280.5400°
revolutions per day: 13.77163649
mean anomaly at epoch: 190.0920°
orbit number at epoch: 52201

The dashed part of the orbit path shows where the satellite is in the earth's shadow,  

DLR